Total_Precipitation_Accumulation
2.27 2.14 3.14 4.69 4.99 4.22 3.60 3.05 2.30 1.87 1.32 1.10 0.99 1.11 1.50 2.07 2.51 3.03 3.40 3.28 2.24 1.86 2.01 2.88 3.98 3.88 3.58 3.68 3.63 3.55 3.51 3.43 3.37 3.25 3.04 2.97 2.91 3.03 3.38 3.35 3.25 3.04 3.02 3.22 3.33 3.52 3.73 3.77 3.79
1.86 2.57 3.80 5.23 4.74 3.79 3.43 2.90 2.19 1.56 1.03 0.81 0.73 0.79 0.93 0.98 1.08 1.91 3.21 3.19 1.86 1.52 1.73 2.34 3.39 3.31 3.28 3.32 3.10 3.01 3.02 2.96 3.03 3.04 2.84 2.88 2.97 3.10 3.36 3.29 3.10 2.88 2.78 2.94 3.22 3.50 3.60 3.65 3.76
2.09 3.34 4.44 4.68 3.73 3.44 3.35 2.60 1.76 1.05 0.72 0.64 0.64 0.63 0.76 1.14 1.32 2.07 2.82 2.28 1.46 1.28 1.60 2.42 3.24 3.04 3.05 3.01 2.74 2.78 2.70 2.71 2.81 2.89 2.79 2.92 2.93 3.03 3.26 3.34 3.30 3.15 3.12 3.12 3.33 3.45 3.50 3.68 3.75
2.41 3.68 3.97 3.65 3.16 2.61 2.23 1.84 1.37 1.15 0.76 0.48 0.46 0.61 0.72 1.21 1.58 1.89 1.92 1.55 1.26 1.30 1.47 2.12 2.85 2.77 2.71 2.62 2.64 2.68 2.60 2.59 2.61 2.71 2.74 2.86 2.96 2.96 3.20 3.40 3.28 3.08 3.25 3.49 3.66 3.63 3.62 3.73 3.82
2.99 3.83 3.60 3.03 2.61 2.10 1.57 1.24 1.07 1.09 0.89 0.53 0.41 0.67 1.02 1.52 1.69 1.50 1.35 1.11 1.07 1.16 1.21 1.67 2.47 2.50 2.45 2.47 2.57 2.67 2.56 2.60 2.53 2.59 2.81 2.92 2.95 3.01 3.18 3.40 3.31 3.05 3.16 3.61 3.81 3.84 3.81 3.70 3.66
3.28 3.38 3.34 2.86 2.56 2.02 1.56 1.15 0.92 0.88 0.71 0.51 0.43 0.68 1.19 1.58 1.80 1.56 1.31 1.28 1.24 1.25 1.18 1.40 2.16 2.34 2.28 2.42 2.42 2.48 2.60 2.60 2.51 2.56 2.64 2.79 2.90 2.90 3.02 3.12 3.12 3.01 3.04 3.25 3.39 3.41 3.61 3.48 3.45
3.15 3.05 2.80 2.31 2.37 2.49 1.81 1.13 0.99 0.97 0.80 0.57 0.41 0.74 1.21 1.54 1.50 1.40 1.43 1.48 1.47 1.52 1.45 1.54 1.78 1.98 2.20 2.39 2.38 2.51 2.64 2.62 2.49 2.41 2.44 2.47 2.59 2.59 2.64 2.76 2.94 2.97 3.08 3.13 3.14 3.34 3.51 3.45 3.39
2.43 2.51 2.26 2.19 2.40 2.62 1.69 1.10 0.91 0.88 0.81 0.41 0.35 0.71 1.14 1.15 1.12 1.26 1.38 1.41 1.39 1.45 1.43 1.48 1.63 1.71 1.79 1.96 2.37 2.65 3.00 2.89 2.48 2.22 2.09 2.25 2.32 2.29 2.43 2.55 2.87 3.15 3.36 3.58 3.55 3.65 3.47 3.36 3.16
2.18 2.60 2.69 2.69 2.64 2.29 1.50 1.28 0.99 0.68 0.62 0.47 0.41 0.56 0.71 0.71 0.87 1.01 1.18 1.19 1.18 1.13 1.18 1.29 1.39 1.45 1.55 1.55 1.82 2.38 2.87 2.87 2.39 2.02 1.99 1.93 1.75 1.74 1.93 2.21 2.74 3.12 3.39 3.71 3.75 3.61 3.35 3.02 2.80
2.12 2.53 2.43 2.03 1.70 1.42 1.24 1.12 0.95 0.84 0.87 0.72 0.62 0.59 0.62 0.67 0.89 0.98 1.03 1.14 1.06 0.99 0.96 0.97 0.97 1.07 1.16 1.17 1.51 1.86 1.90 2.12 1.88 1.79 1.73 1.70 1.75 1.78 1.52 1.72 2.30 2.71 3.02 3.29 3.52 3.42 2.97 2.31 2.08
1.78 1.91 1.68 1.46 1.12 0.92 0.92 0.83 0.73 0.78 0.89 0.78 0.77 0.66 0.69 0.72 0.84 0.90 0.87 0.88 0.93 0.89 0.88 0.82 0.79 0.86 1.02 1.18 1.33 1.55 1.73 1.89 1.87 1.80 1.82 1.90 1.86 1.58 1.43 1.53 1.72 2.02 2.33 2.47 2.71 2.70 2.21 1.84 1.74
1.70 1.40 1.23 1.18 0.84 0.83 0.86 0.72 0.64 0.64 0.61 0.49 0.60 0.58 0.62 0.68 0.72 0.73 0.75 0.78 0.76 0.75 0.83 0.79 0.65 0.67 0.76 0.85 1.02 1.18 1.40 1.62 1.70 1.53 1.50 1.69 1.76 1.59 1.46 1.64 1.71 1.91 2.21 2.49 2.59 2.37 2.03 1.65 1.51
1.64 1.51 1.21 1.07 0.83 0.83 0.78 0.71 0.61 0.53 0.47 0.41 0.49 0.62 0.70 0.76 0.77 0.73 0.71 0.75 0.73 0.76 0.82 0.85 0.74 0.70 0.74 0.80 0.88 0.89 1.18 1.37 1.54 1.60 1.41 1.55 1.64 1.60 1.49 1.45 1.63 1.72 2.03 2.29 2.44 2.32 2.11 1.82 1.58
1.51 1.37 1.11 1.01 0.89 0.81 0.76 0.69 0.64 0.56 0.49 0.45 0.52 0.66 0.72 0.79 0.82 0.76 0.73 0.72 0.65 0.72 0.82 0.83 0.83 0.80 0.80 0.82 0.82 0.82 0.89 0.98 1.09 1.06 1.06 1.23 1.37 1.40 1.43 1.34 1.43 1.61 1.96 2.40 2.53 2.27 2.13 1.91 1.79
1.24 1.35 1.39 1.15 0.94 0.76 0.79 0.97 0.73 0.61 0.61 0.59 0.61 0.65 0.70 0.70 0.74 0.76 0.72 0.72 0.71 0.74 0.79 0.85 0.90 0.95 0.95 0.93 0.97 0.95 0.91 0.94 0.93 0.91 0.92 1.00 1.12 1.19 1.30 1.37 1.40 1.53 1.88 2.35 2.64 2.50 2.28 2.00 1.94
1.37 1.55 1.88 1.48 1.18 0.94 1.06 1.33 0.73 0.63 0.69 0.66 0.64 0.61 0.63 0.60 0.65 0.69 0.72 0.76 0.78 0.76 0.72 0.77 0.80 0.90 0.91 0.94 0.98 1.07 1.08 1.08 1.06 1.08 1.05 0.99 1.13 1.22 1.32 1.44 1.41 1.47 1.79 2.21 2.58 2.71 2.70 2.48 2.31
1.55 1.54 1.53 1.46 1.24 1.03 1.00 1.01 0.66 0.61 0.70 0.73 0.67 0.63 0.67 0.51 0.54 0.59 0.61 0.68 0.77 0.76 0.71 0.70 0.73 0.75 0.77 0.78 0.83 0.96 1.05 1.13 1.22 1.21 1.22 1.23 1.30 1.31 1.40 1.61 1.65 1.66 1.90 2.11 2.24 2.46 2.65 2.72 2.53
1.21 1.12 1.13 1.23 1.04 1.02 0.97 0.77 0.59 0.61 0.67 0.71 0.73 0.67 0.64 0.48 0.43 0.43 0.49 0.59 0.70 0.74 0.75 0.73 0.72 0.71 0.67 0.65 0.74 0.87 0.98 1.05 1.24 1.31 1.36 1.65 1.76 1.53 1.48 1.65 1.70 1.77 2.06 2.18 2.31 2.60 2.70 2.78 2.79
0.86 0.82 0.93 0.92 0.75 0.93 0.91 0.73 0.61 0.55 0.53 0.57 0.63 0.64 0.61 0.50 0.40 0.37 0.38 0.45 0.55 0.55 0.56 0.65 0.67 0.75 0.74 0.63 0.61 0.75 0.92 1.07 1.23 1.41 1.43 1.64 1.74 1.62 1.66 1.72 1.77 1.82 1.97 2.05 2.20 2.66 2.81 2.82 2.73
0.82 0.90 0.95 0.85 0.74 0.83 0.92 0.77 0.62 0.53 0.46 0.48 0.53 0.58 0.58 0.49 0.43 0.41 0.39 0.42 0.46 0.51 0.48 0.51 0.58 0.70 0.82 0.82 0.80 0.90 1.10 1.22 1.34 1.54 1.57 1.63 1.62 1.58 1.52 1.76 1.92 1.89 2.05 2.11 2.29 2.66 2.99 2.85 2.74
0.77 0.86 0.87 0.88 0.90 0.84 0.91 1.00 0.78 0.59 0.50 0.49 0.49 0.51 0.52 0.44 0.41 0.42 0.38 0.34 0.38 0.41 0.40 0.46 0.60 0.77 0.95 1.12 1.36 1.59 1.87 2.01 1.89 1.78 1.86 1.94 1.97 1.87 1.80 1.91 2.08 2.05 2.12 2.23 2.28 2.43 2.99 3.25 3.07
0.87 0.61 0.65 0.78 1.06 1.10 0.89 1.18 0.82 0.58 0.56 0.55 0.51 0.46 0.43 0.39 0.35 0.33 0.34 0.33 0.35 0.43 0.52 0.63 0.81 0.99 1.18 1.40 1.65 1.94 2.19 2.38 2.34 2.36 2.42 2.37 2.28 2.16 2.01 2.04 2.14 2.18 2.25 2.23 2.06 2.24 2.79 3.38 3.51
0.68 0.60 0.64 0.78 1.04 1.02 0.87 0.90 0.75 0.59 0.66 0.67 0.61 0.52 0.50 0.48 0.44 0.44 0.46 0.46 0.49 0.62 0.77 0.90 1.21 1.40 1.53 1.60 1.72 1.99 2.08 2.15 2.23 2.34 2.39 2.40 2.32 2.20 2.05 2.00 2.17 2.26 2.30 2.27 2.31 2.46 2.76 3.12 3.48
0.57 0.71 0.82 0.95 1.10 1.09 0.75 0.75 0.79 0.59 0.65 0.73 0.68 0.59 0.54 0.52 0.49 0.52 0.60 0.62 0.70 0.96 1.22 1.36 1.53 1.76 1.71 1.63 1.66 1.78 1.93 2.02 2.11 2.24 2.27 2.20 2.08 2.05 2.02 2.03 2.06 2.07 2.15 2.22 2.36 2.59 2.73 2.93 3.17
0.59 0.95 1.24 1.29 1.22 0.89 0.48 0.59 0.68 0.49 0.45 0.53 0.58 0.57 0.53 0.47 0.48 0.53 0.64 0.78 1.00 1.26 1.48 1.63 1.67 1.71 1.64 1.53 1.59 1.62 1.79 1.97 2.02 2.03 1.99 1.96 1.89 1.83 1.86 1.95 1.94 1.86 1.89 2.02 2.17 2.36 2.38 2.51 2.73
0.52 0.69 1.06 1.20 1.05 0.72 0.49 0.66 0.64 0.46 0.35 0.31 0.33 0.39 0.48 0.52 0.60 0.64 0.71 0.91 1.25 1.54 1.78 2.06 2.06 1.87 1.70 1.60 1.65 1.74 1.85 1.92 1.90 1.78 1.75 1.74 1.68 1.62 1.57 1.60 1.67 1.70 1.72 1.79 1.95 2.07 2.03 2.09 2.27
0.49 0.51 0.55 0.79 0.69 0.66 0.55 0.58 0.50 0.34 0.28 0.27 0.29 0.35 0.48 0.58 0.69 0.81 0.97 1.09 1.39 1.65 1.96 2.26 2.37 2.18 2.02 1.93 1.88 1.92 1.84 1.73 1.64 1.54 1.51 1.51 1.51 1.41 1.33 1.37 1.48 1.58 1.60 1.63 1.80 1.90 1.84 1.89 1.99
0.40 0.46 0.57 0.83 0.91 0.87 0.64 0.62 0.54 0.38 0.28 0.28 0.38 0.44 0.52 0.63 0.69 0.86 1.18 1.49 1.81 1.80 1.93 2.14 2.12 2.08 2.09 2.12 2.11 2.03 1.86 1.69 1.63 1.57 1.56 1.49 1.47 1.36 1.33 1.33 1.33 1.36 1.39 1.45 1.66 1.84 1.89 1.88 1.90
0.39 0.46 0.56 0.72 0.74 0.93 0.97 0.82 0.55 0.47 0.44 0.46 0.52 0.55 0.59 0.67 0.74 0.94 1.16 1.39 1.67 1.82 1.84 1.85 1.86 1.94 1.97 1.88 1.83 1.76 1.54 1.39 1.36 1.37 1.36 1.32 1.29 1.19 1.14 1.10 1.14 1.25 1.23 1.24 1.43 1.54 1.58 1.73 1.80
0.43 0.47 0.57 0.90 0.87 0.78 1.04 1.05 0.63 0.60 0.61 0.67 0.72 0.77 0.80 0.81 0.89 1.04 1.17 1.37 1.48 1.52 1.63 1.73 1.64 1.61 1.61 1.52 1.44 1.33 1.27 1.19 1.18 1.19 1.14 1.08 1.11 1.06 1.09 1.09 1.02 1.15 1.27 1.28 1.32 1.33 1.34 1.50 1.62